Simultaneous Nadir Overpasses (SNOs) Predictions

Prediction of SNOs between GOES-14 and NPP Satellite Orbit:

Table of predicted SNOs for the next 14.0 days since TLE Epoch: 8/20/2022
Index Date Time (GOES-14) GOES-14 Lat,Lon NPP Lat,Lon Distance(km) Time Diff (sec)
1 08/21/2022 08:27:30 -0.47,-104.43 -0.27,-105.22 91.55 80
2 08/22/2022 08:06:07 -0.47,-104.41 -1.31,-100.70 423.49 80
3 08/23/2022 20:28:05 0.49,-104.64 0.18,-106.02 157.58 80
4 08/24/2022 20:12:01 0.48,-104.64 1.17,-101.49 359.18 80
5 08/26/2022 08:33:49 -0.50,-104.43 0.02,-106.76 264.92 80
6 08/27/2022 08:12:24 -0.49,-104.42 -0.97,-102.22 250.15 80
7 08/28/2022 20:34:23 0.50,-104.62 -0.15,-107.54 333.60 80
8 08/29/2022 20:18:18 0.50,-104.62 0.84,-103.01 183.50 80
9 08/31/2022 08:40:07 -0.51,-104.44 0.35,-108.28 436.90 80
10 09/01/2022 08:18:42 -0.51,-104.43 -0.64,-103.74 77.98 80
